{"data":{"norad_id":65059,"epoch":"2026-05-25T04:44:20.497344Z","epoch_age_seconds":51777,"freshness":"FRESH","line1":"1 65059U 25165D   26145.19745946  .00004364  00000+0  30627-3 0  9994","line2":"2 65059  97.4451 222.2891 0001749 145.5571 214.5770 15.05658587 46301","mean_motion":15.05658587,"eccentricity":0.0001749,"inclination_deg":97.4451,"raan_deg":222.2891,"arg_perigee_deg":145.5571,"mean_anomaly_deg":214.577,"bstar":0.00030627,"rev_number":4630,"period_min":95.639211467533,"perigee_km":548.27317333779,"apogee_km":550.69645544846,"semimajor_km":6927.6218143931,"source":"CELESTRAK","updated_at":"2026-05-25T13:38:20.676276Z"}}